Weather History for Racine, WI

Change the Weather History Date:

Friday, March 15, 2013

  Actual Average Record
Temperature  
Mean Temperature 34 °F -  
Max Temperature 37 °F 42 °F 71 °F (2012)
Min Temperature 30 °F 26 °F 6 °F (1993)
Degree Days  
Heating Degree Days 32    
Moisture  
Dew Point 29 °F    
Average Humidity 82    
Maximum Humidity 89    
Minimum Humidity 70    
Precipitation  
Precipitation 0.03 in - - ()
Sea Level Pressure  
Sea Level Pressure 29.93 in    
Wind  
Wind Speed 7 mph (NNE)    
Max Wind Speed 17 mph    
Max Gust Speed -    
Visibility 6 miles    
Events Rain , Snow    
Averages and records for this station are not official NWS values.
T = Trace of Precipitation, MM = Missing Value Source: NWS Daily Summary

Daily Weather History Graph

Daily Weather History Graph

Search for Another Location

Airport:

Trip Planner

Search our weather history database for the weather conditions in past years. The results will help you decide how hot, cold, wet, or windy it might be!

Date:

Astronomy

Mar. 15, 2013 Rise Set
Actual Time 7:02 AM CDT 6:57 PM CDT
Civil Twilight 6:34 AM CDT 7:26 PM CDT
Nautical Twilight 6:01 AM CDT 7:59 PM CDT
Astronomical Twilight 5:28 AM CDT 8:32 PM CDT
Moon 8:46 AM CDT (3/15) 11:18 PM CDT (3/15)
Length of Visible Light 12h 51m
Length of Day
11h 55m
Waxing Crescent, 15% of the Moon is Illuminated
Mar 15
Waxing Crescent
Mar 19
First Quarter
Mar 27
Full
Apr 2
Last Quarter
Apr 10
New

Hourly Weather History & Observations

Time (CDT) Temp. Windchill Dew Point Humidity Pressure Visibility Wind Dir Wind Speed Gust Speed Precip Events Conditions
12:53 AM 30.9 °F 24.3 °F 27.0 °F 85% 30.07 in 6.0 mi SW 6.9 mph - N/A   Clear
1:53 AM 32.0 °F 24.8 °F 27.0 °F 82% 30.05 in 6.0 mi SW 8.1 mph - N/A   Haze
2:53 AM 32.0 °F 28.7 °F 28.0 °F 85% 30.03 in 7.0 mi WSW 3.5 mph - N/A   Clear
3:53 AM 32.0 °F 27.5 °F 27.0 °F 82% 30.00 in 7.0 mi SW 4.6 mph - N/A   Clear
4:53 AM 32.0 °F - 28.0 °F 85% 29.99 in 7.0 mi Calm Calm - N/A   Clear
5:53 AM 30.9 °F - 27.0 °F 85% 29.99 in 6.0 mi Calm Calm - N/A   Clear
6:53 AM 30.9 °F - 27.0 °F 85% 29.98 in 5.0 mi Calm Calm - N/A   Partly Cloudy
7:53 AM 32.0 °F 27.5 °F 28.0 °F 85% 29.96 in 4.0 mi West 4.6 mph - N/A   Mostly Cloudy
8:53 AM 33.1 °F 26.9 °F 28.0 °F 82% 29.96 in 5.0 mi WNW 6.9 mph - N/A   Haze
9:53 AM 35.1 °F 30.1 °F 28.9 °F 78% 29.95 in 5.0 mi WNW 5.8 mph - N/A   Haze
10:53 AM 37.0 °F 33.3 °F 28.9 °F 73% 29.94 in 6.0 mi NNW 4.6 mph - N/A   Haze
11:53 AM 37.9 °F 32.1 °F 28.9 °F 70% 29.94 in 5.0 mi NE 8.1 mph - 0.00 in Rain Light Rain
12:53 PM 37.9 °F 32.1 °F 28.9 °F 70% 29.95 in 5.0 mi NNE 8.1 mph - 0.00 in   Haze
1:53 PM 36.0 °F 30.3 °F 30.0 °F 79% 29.94 in 2.0 mi North 6.9 mph - 0.01 in Snow Light Snow
2:18 PM 35.6 °F 28.6 °F 30.2 °F 81% 29.91 in 2.5 mi NNE 9.2 mph - 0.00 in   Overcast
2:30 PM 35.6 °F 29.9 °F 30.2 °F 81% 29.91 in 2.5 mi NNE 6.9 mph - 0.00 in   Overcast
2:49 PM 35.6 °F 28.0 °F 30.2 °F 81% 29.90 in 1.8 mi North 10.4 mph - 0.01 in Snow Light Snow
2:53 PM 36.0 °F 29.6 °F 30.9 °F 82% 29.92 in 1.8 mi North 8.1 mph - 0.01 in Snow Light Snow
3:53 PM 35.1 °F 29.3 °F 32.0 °F 89% 29.91 in 1.5 mi NNE 6.9 mph - 0.00 in   Overcast
4:08 PM 35.6 °F 29.9 °F 32.0 °F 87% 29.89 in 1.0 mi NNE 6.9 mph - 0.01 in Snow Light Snow
4:53 PM 35.1 °F 28.6 °F 32.0 °F 89% 29.91 in 1.2 mi NNE 8.1 mph - 0.01 in Snow Light Snow
5:09 PM 35.6 °F 28.0 °F 32.0 °F 87% 29.88 in 3.0 mi NE 10.4 mph - 0.00 in Snow Light Snow
5:23 PM 35.6 °F 27.5 °F 30.2 °F 81% 29.88 in 6.0 mi NE 11.5 mph - 0.00 in Rain Light Rain
5:53 PM 34.0 °F 25.5 °F 30.9 °F 89% 29.89 in 10.0 mi NE 11.5 mph - 0.00 in   Overcast
6:53 PM 34.0 °F 25.0 °F 30.0 °F 85% 29.88 in 10.0 mi NE 12.7 mph - 0.00 in   Overcast
7:27 PM 33.8 °F 23.9 °F 30.2 °F 87% 29.86 in 10.0 mi NE 15.0 mph - N/A   Overcast
7:53 PM 34.0 °F 24.2 °F 28.9 °F 82% 29.88 in 10.0 mi NE 15.0 mph - N/A   Overcast
8:02 PM 33.8 °F 24.3 °F 28.4 °F 81% 29.86 in 10.0 mi NE 13.8 mph - N/A   Overcast
8:53 PM 34.0 °F 28.0 °F 28.0 °F 79% 29.90 in 10.0 mi NNE 6.9 mph - N/A   Overcast
9:53 PM 34.0 °F 28.0 °F 28.0 °F 79% 29.89 in 10.0 mi NE 6.9 mph - N/A   Overcast
10:53 PM 34.0 °F 25.0 °F 28.9 °F 82% 29.86 in 10.0 mi NNE 12.7 mph - N/A   Overcast
11:35 PM 33.8 °F 24.3 °F 28.4 °F 81% 29.82 in 10.0 mi NE 13.8 mph - N/A   Overcast
11:53 PM 34.0 °F 23.4 °F 28.9 °F 82% 29.83 in 10.0 mi NE 17.3 mph - N/A   Overcast